User: anonymous   Login
Location: Unspecified
(42.3650°N, 71.1030°W)
Time: 05:57:00
(UTC+00:00)
Language:

XW-2D - Orbit

View from above orbital plane
View from above orbital plane
View from above satellite
View from above satellite

Ground track
Ground track

The orbit data is extracted from the following two-line orbital elements,

1 40907U 15049J   24197.84055821  .00056282  00000-0  89593-3 0  9995
2 40907  97.4710 218.2786 0008308 167.1523 192.9943 15.53064338489149
Epoch (UTC): 15 July 2024 20:10:24
Eccentricity: 0.0008308
inclination: 97.4710°
perigee height: 402 km
apogee height: 413 km
right ascension of ascending node: 218.2786°
argument of perigee: 167.1523°
revolutions per day: 15.53064338
mean anomaly at epoch: 192.9943°
orbit number at epoch: 48914

The dashed part of the orbit path shows where the satellite is in the earth's shadow,  

DLR